Weather History for O'Neill, NE

Change the Weather History Date:

Tuesday, December 10, 2013

  Actual Average Record
Temperature  
Mean Temperature 20 °F -  
Max Temperature 32 °F 36 °F 62 °F (1990)
Min Temperature 7 °F 15 °F -20 °F (1972)
Degree Days  
Heating Degree Days 46    
Moisture  
Dew Point 14 °F    
Average Humidity 69    
Maximum Humidity 85    
Minimum Humidity 52    
Precipitation  
Precipitation 0.00 in - - ()
Sea Level Pressure  
Sea Level Pressure 30.07 in    
Wind  
Wind Speed 13 mph (West)    
Max Wind Speed 28 mph    
Max Gust Speed 34 mph    
Visibility 10 miles    
Events Snow    
Averages and records for this station are not official NWS values.
T = Trace of Precipitation, MM = Missing Value Source: NWS Daily Summary

Daily Weather History Graph

Daily Weather History Graph

Search for Another Location

Airport:

Trip Planner

Search our weather history database for the weather conditions in past years. The results will help you decide how hot, cold, wet, or windy it might be!

Date:

Astronomy

Dec. 10, 2013 Rise Set
Actual Time 7:53 AM CST 5:01 PM CST
Civil Twilight 7:21 AM CST 5:33 PM CST
Nautical Twilight 6:46 AM CST 6:09 PM CST
Astronomical Twilight 6:12 AM CST 6:43 PM CST
Moon 1:10 PM CST (12/10) 1:06 AM CST (12/10)
Length of Visible Light 10h 11m
Length of Day
9h 08m
Waxing Gibbous, 62% of the Moon is Illuminated
Dec 10
Waxing Gibbous
Dec 17
Full
Dec 25
Last Quarter
Jan 1
New
Jan 7
First Quarter

Hourly Weather History & Observations

Time (CST) Temp. Windchill Dew Point Humidity Pressure Visibility Wind Dir Wind Speed Gust Speed Precip Events Conditions
12:15 AM 23.9 °F 11.2 °F 10.9 °F 58% 29.95 in 10.0 mi West 15.0 mph 20.7 mph N/A   Mostly Cloudy
12:35 AM 24.4 °F 12.4 °F 11.3 °F 57% 29.95 in 10.0 mi West 13.8 mph 20.7 mph N/A   Overcast
12:55 AM 25.0 °F 12.6 °F 13.5 °F 62% 29.97 in 10.0 mi West 15.0 mph 20.7 mph N/A   Overcast
1:15 AM 24.8 °F 9.6 °F 16.5 °F 71% 29.98 in 10.0 mi WNW 23.0 mph 27.6 mph N/A Snow Light Snow
1:35 AM 24.1 °F 7.4 °F 17.2 °F 75% 29.99 in 10.0 mi WNW 27.6 mph 34.5 mph N/A   Mostly Cloudy
1:55 AM 23.7 °F 8.2 °F 17.6 °F 77% 30.00 in 7.0 mi NW 23.0 mph 32.2 mph N/A   Overcast
2:15 AM 22.1 °F 6.4 °F 15.8 °F 77% 30.02 in 5.0 mi NW 21.9 mph 29.9 mph N/A Snow Light Snow
2:35 AM 20.3 °F 4.8 °F 14.0 °F 77% 30.03 in 10.0 mi NW 19.6 mph 27.6 mph N/A   Overcast
2:55 AM 18.1 °F 2.4 °F 12.2 °F 78% 30.04 in 10.0 mi NW 18.4 mph 29.9 mph N/A   Mostly Cloudy
3:15 AM 17.6 °F 1.7 °F 10.2 °F 73% 30.04 in 10.0 mi WNW 18.4 mph 25.3 mph N/A   Scattered Clouds
3:35 AM 17.4 °F 0.2 °F 9.1 °F 70% 30.05 in 10.0 mi WNW 21.9 mph 27.6 mph N/A   Mostly Cloudy
4:35 AM 17.1 °F 3.0 °F 7.2 °F 65% 30.05 in 10.0 mi NW 13.8 mph - N/A   Overcast
4:55 AM 15.6 °F 4.0 °F 6.6 °F 68% 30.07 in 10.0 mi NW 9.2 mph - N/A   Scattered Clouds
5:15 AM 14.7 °F 4.8 °F 6.1 °F 69% 30.07 in 10.0 mi WNW 6.9 mph - N/A   Scattered Clouds
5:35 AM 11.8 °F 2.5 °F 5.0 °F 74% 30.07 in 10.0 mi NW 5.8 mph - N/A   Scattered Clouds
5:55 AM 11.3 °F 3.3 °F 4.8 °F 75% 30.06 in 10.0 mi West 4.6 mph - N/A   Clear
6:15 AM 8.8 °F -1.1 °F 2.8 °F 77% 30.07 in 10.0 mi West 5.8 mph - N/A   Scattered Clouds
6:35 AM 10.2 °F 3.8 °F 4.1 °F 76% 30.06 in 10.0 mi WSW 3.5 mph - N/A   Mostly Cloudy
6:55 AM 10.0 °F -1.9 °F 5.0 °F 80% 30.06 in 10.0 mi West 8.1 mph - N/A   Mostly Cloudy
7:15 AM 10.9 °F 1.4 °F 6.1 °F 81% 30.08 in 10.0 mi WSW 5.8 mph - N/A   Scattered Clouds
7:35 AM 9.5 °F - 4.8 °F 81% 30.08 in 10.0 mi Calm Calm - N/A   Mostly Cloudy
7:55 AM 9.0 °F - 5.2 °F 85% 30.09 in 10.0 mi Calm Calm - N/A   Overcast
8:15 AM 7.7 °F 1.0 °F 3.7 °F 84% 30.10 in 10.0 mi South 3.5 mph - N/A   Overcast
8:35 AM 8.1 °F 1.4 °F 4.1 °F 84% 30.10 in 10.0 mi SSW 3.5 mph - N/A   Scattered Clouds
8:55 AM 10.4 °F 2.2 °F 5.4 °F 80% 30.11 in 10.0 mi SW 4.6 mph - N/A   Clear
9:15 AM 12.4 °F 0.0 °F 6.6 °F 78% 30.10 in 10.0 mi SW 9.2 mph - N/A   Mostly Cloudy
9:35 AM 15.6 °F 4.9 °F 8.4 °F 73% 30.10 in 10.0 mi WSW 8.1 mph - N/A   Scattered Clouds
9:55 AM 18.0 °F 7.7 °F 9.0 °F 68% 30.11 in 10.0 mi WSW 8.1 mph - N/A   Clear
10:15 AM 19.4 °F 11.5 °F 8.4 °F 62% 30.09 in 10.0 mi West 5.8 mph - N/A   Clear
10:35 AM 22.1 °F 12.8 °F 9.9 °F 59% 30.09 in 10.0 mi SW 8.1 mph - N/A   Clear
10:55 AM 22.1 °F 13.7 °F 12.0 °F 65% 30.10 in 10.0 mi SW 6.9 mph - N/A   Clear
11:15 AM 22.8 °F 18.2 °F 12.9 °F 66% 30.07 in 10.0 mi SW 3.5 mph - N/A   Scattered Clouds
11:35 AM 23.9 °F 18.0 °F 13.8 °F 65% 30.06 in 10.0 mi SSW 4.6 mph - N/A   Mostly Cloudy
11:55 AM 24.8 °F 16.9 °F 14.2 °F 64% 30.05 in 10.0 mi SSW 6.9 mph - N/A   Overcast
12:15 PM 25.2 °F 17.3 °F 14.2 °F 63% 30.04 in 10.0 mi SSW 6.9 mph - N/A   Overcast
12:35 PM 25.7 °F 16.4 °F 14.9 °F 64% 30.01 in 10.0 mi South 9.2 mph - N/A   Overcast
12:55 PM 26.6 °F 17.5 °F 15.6 °F 63% 30.01 in 10.0 mi South 9.2 mph - N/A   Overcast
1:15 PM 28.0 °F 19.3 °F 16.3 °F 62% 30.01 in 10.0 mi SSW 9.2 mph - N/A   Overcast
1:35 PM 28.9 °F 19.8 °F 16.7 °F 60% 30.00 in 10.0 mi SSW 10.4 mph - N/A   Overcast
1:55 PM 30.0 °F 20.5 °F 16.0 °F 56% 30.00 in 10.0 mi SSW 11.5 mph 16.1 mph N/A   Overcast
2:15 PM 30.2 °F 21.9 °F 15.3 °F 54% 29.99 in 10.0 mi SSW 9.2 mph - N/A   Overcast
2:35 PM 30.7 °F 24.1 °F 15.6 °F 54% 29.98 in 10.0 mi SSW 6.9 mph - N/A   Mostly Cloudy
2:55 PM 30.9 °F 22.8 °F 14.9 °F 52% 29.99 in 10.0 mi SW 9.2 mph - N/A   Overcast
3:15 PM 30.9 °F 22.8 °F 16.0 °F 54% 29.98 in 10.0 mi SSW 9.2 mph - N/A   Overcast
3:35 PM 31.1 °F 23.7 °F 16.5 °F 55% 29.98 in 10.0 mi SSW 8.1 mph - N/A   Overcast
3:55 PM 32.0 °F 23.6 °F 16.5 °F 53% 29.98 in 10.0 mi SW 10.4 mph 18.4 mph N/A   Overcast
4:15 PM 32.0 °F 22.5 °F 18.0 °F 56% 29.98 in 10.0 mi SW 12.7 mph - N/A   Overcast
4:35 PM 32.2 °F 22.3 °F 19.9 °F 61% 29.99 in 10.0 mi SW 13.8 mph 19.6 mph N/A   Overcast
4:55 PM 32.4 °F 22.5 °F 23.4 °F 69% 29.99 in 10.0 mi WSW 13.8 mph 20.7 mph N/A   Overcast
5:15 PM 32.2 °F 23.2 °F 24.6 °F 74% 30.00 in 10.0 mi West 11.5 mph - N/A   Overcast
5:35 PM 32.0 °F 24.8 °F 23.5 °F 71% 30.00 in 10.0 mi West 8.1 mph - N/A   Overcast
5:55 PM 32.0 °F 24.8 °F 22.3 °F 67% 30.02 in 10.0 mi NW 8.1 mph - N/A   Overcast
6:15 PM 32.2 °F 23.2 °F 19.8 °F 60% 30.03 in 10.0 mi WNW 11.5 mph - N/A   Overcast
6:35 PM 32.0 °F 20.1 °F 18.9 °F 58% 30.05 in 10.0 mi WNW 19.6 mph 23.0 mph N/A   Overcast
6:55 PM 30.9 °F 18.7 °F 20.1 °F 64% 30.07 in 10.0 mi NW 19.6 mph 25.3 mph N/A   Overcast
7:15 PM 29.7 °F 17.8 °F 21.4 °F 71% 30.09 in 7.0 mi NW 17.3 mph 27.6 mph N/A Snow Light Snow
7:35 PM 28.4 °F 16.6 °F 21.9 °F 77% 30.09 in 7.0 mi NW 16.1 mph 21.9 mph N/A Snow Light Snow
7:55 PM 28.0 °F 15.3 °F 19.9 °F 72% 30.11 in 10.0 mi NW 18.4 mph 25.3 mph N/A   Overcast
8:15 PM 27.1 °F 14.9 °F 20.1 °F 75% 30.14 in 10.0 mi NW 16.1 mph 24.2 mph N/A   Overcast
8:35 PM 26.2 °F 12.2 °F 19.9 °F 77% 30.15 in 10.0 mi NW 20.7 mph 31.1 mph N/A   Overcast
8:55 PM 24.8 °F 10.0 °F 18.0 °F 75% 30.18 in 10.0 mi NW 21.9 mph 32.2 mph N/A   Mostly Cloudy
9:15 PM 23.9 °F 9.1 °F 17.6 °F 77% 30.19 in 10.0 mi NNW 20.7 mph 29.9 mph N/A   Overcast
9:35 PM 23.5 °F 8.7 °F 17.2 °F 77% 30.22 in 10.0 mi NNW 20.7 mph 25.3 mph N/A   Overcast
9:55 PM 23.0 °F 9.2 °F 17.2 °F 79% 30.23 in 10.0 mi NNW 17.3 mph 23.0 mph N/A   Overcast
10:15 PM 22.8 °F 9.9 °F 16.0 °F 75% 30.25 in 10.0 mi NNW 15.0 mph 25.3 mph N/A   Overcast
10:35 PM 22.5 °F 8.5 °F 15.8 °F 76% 30.27 in 10.0 mi NNW 17.3 mph - N/A   Overcast
10:55 PM 21.2 °F 6.0 °F 14.9 °F 77% 30.28 in 10.0 mi NNW 19.6 mph 26.5 mph N/A   Mostly Cloudy
11:15 PM 21.2 °F 4.5 °F 15.1 °F 77% 30.30 in 10.0 mi NNW 24.2 mph 28.8 mph N/A   Overcast
11:35 PM 19.8 °F 3.7 °F 13.8 °F 78% 30.31 in 10.0 mi NNW 20.7 mph 29.9 mph N/A Snow Light Snow
11:55 PM 16.7 °F 0.1 °F 10.0 °F 75% 30.33 in 10.0 mi North 19.6 mph 27.6 mph N/A   Scattered Clouds